Вернуться в каталог

CBERS 1 DEB

АктивенPO
NORAD 35387·DEBRIS·🇧🇷 Brazil🇨🇳 China

Запущен Oct 14, 1999 с Taiyuan Satellite Launch Center

Loading…

Ближайшие Пролёты (ближайшие 24 часа)

TLE

СвежийSource: Space-Track

Эпоха: Sep 12, 2026, 10:21 UTC

1 35387U 99057SS  26255.43134798  .00009217  00000-0  92263-3 0  9999
2 35387  98.4928 338.9221 0000458 341.6576  18.4624 14.91659022982244

Отслеживайте CBERS 1 DEB в реальном времени с AllMySat

Download on the App Store